Regional Weather Roundup
Issued by NWS

Home | Current Version | Previous Version | Text Only | Print | Product List | Glossary On
Versions: 1 2 3 4 5 6 7 8 9 10 11 12 13 14 15 16 17 18 19 20 21 22 23 24 25 26 27 28 29 30 31 32 33 34 35 36 37 38 39 40 41 42 43 44 45 46 47 48 49 50
000
ASPQ40 PGUM 060714
RWRPQ
WEATHER ROUNDUP FOR THE MARIANAS AND MICRONESIA
NATIONAL WEATHER SERVICE TIYAN GU
500 PM CHST MON JUL 06 2015

GUZ001>004-060800-
MARIANA ISLANDS-

CITY           SKY/WX    TMP DP  RH WIND       PRES   REMARKS
GUAM AIRPORT   MOSUNNY   84  77  79 S10G17    29.66R HX  94
ANDERSEN AFB   MOSUNNY   84  77  79 S21G28    29.67R HX  94
ROTA AIRPORT   NOT AVBL
TINIAN AP      NOT AVBL
SAIPAN AP      MOSUNNY   84  79  84 S14G21    29.66R HX  96

$$

PMZ161-060800-
REPUBLIC OF PALAU-

CITY           SKY/WX    TMP DP  RH WIND       PRES   REMARKS
KOROR AP       PTSUNNY   86  75  70 W12G25    29.75S HX  95
KOROR WSO      CLOUDY    84  75  74 W12       29.75F HX  92

$$

PMZ171>174-060800-
FEDERATED STATES OF MICRONESIA-

CITY           SKY/WX    TMP DP  RH WIND       PRES   REMARKS
YAP AIRPORT    CLOUDY    84  77  79 SW14      29.68S HX  94
CHUUK AP       CLOUDY    82  77  83 SW8       29.76R HX  91
POHNPEI AP     NOT AVBL
POHNPEI WSO    CLOUDY    82  79  89 SW7       29.78R HX  93
KOSRAE AP      NOT AVBL

$$

PMZ181-060800-
REPUBLIC OF THE MARSHALL ISLANDS-

CITY           SKY/WX    TMP DP  RH WIND       PRES   REMARKS
KWAJALEIN AP   CLOUDY    82  75  78 W16       29.83S
MAJURO AP      PTCLDY    82  77  83 SW8       29.82  HX  91
MAJURO WSO     PTCLDY    84  77  79 SW7       29.82R HX  94

$$




USA.gov is the U.S. government's official web portal to all federal, state and local government web resources and services.